Regional Weather Roundup
Issued by NWS

Home | Current Version | Previous Version | Text Only | Print | Product List | Glossary Off
Versions: 1 2 3 4 5 6 7 8 9 10 11 12 13 14 15 16 17 18 19 20 21 22 23 24 25 26 27 28 29 30 31 32 33 34 35 36 37 38 39 40 41 42 43 44 45 46 47 48 49 50

000
ASUS43 KOAX 280510
RWRNE

WEATHER ROUNDUP FOR NEBRASKA
NATIONAL WEATHER SERVICE OMAHA NE
1200 AM CDT THU AUG 28 2014

NOTES: SATELLITE DATA IS BEING USED TO AUGMENT CLOUD COVER ABOVE
       12000 FEET.
       "FAIR" INDICATES FEW OR NO CLOUDS BELOW 12,000 FEET WITH NO
       SIGNIFICANT WEATHER AND/OR OBSTRUCTIONS TO VISIBILITY.

  * THESE STATIONS DO NOT REPORT WEATHER SUCH AS RAIN...SNOW OR FOG.

NEZ001>004-019>022-054>056-280600-
NEBRASKA PANHANDLE

CITY           SKY/WX    TMP DP  RH WIND       PRES   REMARKS
SCOTTSBLUFF    CLOUDY    63  62  97 W3        30.09R
ALLIANCE       CLOUDY    63  61  93 N3        30.06R
CHADRON        CLOUDY    64  63  96 N8        30.04S
KIMBALL        MOCLDY    60  57  92 NW6       30.11F
SIDNEY         LGT RAIN  64  61  90 N8        30.09R
$$

NEZ057>060-069>072-079>082-280600-
SOUTHWEST NEBRASKA

CITY           SKY/WX    TMP DP  RH WIND       PRES   REMARKS
NORTH PLATTE   CLOUDY    68  66  93 NE5       30.01F
IMPERIAL       LGT RAIN  61  59  93 N14       30.08F FOG
LEXINGTON      CLOUDY    68  67  95 SE7       30.00F FOG
MCCOOK         CLOUDY    68  67  96 SE9       29.99F
OGALLALA       RAIN      59  59  97 W12       30.08R
$$

NEZ005>010-023>029-035>040-094-280600-
NORTH CENTRAL NEBRASKA

CITY           SKY/WX    TMP DP  RH WIND       PRES   REMARKS
VALENTINE      CLOUDY    68  67  96 E9        30.01F FOG
AINSWORTH      CLOUDY    67  67  99 E7        30.03F FOG
BROKEN BOW     LGT RAIN  70  68  93 SE3       30.02F FOG
O`NEILL        CLOUDY    70  70  99 SE10      30.03F FOG
ORD            LGT RAIN  69  68  96 SE3       30.01F
THEDFORD       CLOUDY    69  67  93 SE12      30.02F
$$

NEZ041-046>049-061>064-073>077-083>087-280600-
SOUTH CENTRAL NEBRASKA

CITY           SKY/WX    TMP DP  RH WIND       PRES   REMARKS
GRAND ISLAND   LGT RAIN  73  70  90 SE10      30.01F FOG
AURORA         LGT RAIN  71  71 100 SE9       30.01F
HASTINGS       LGT RAIN  72  68  87 SE16G23   30.01F
HEBRON         TSTM      72  69  90 CALM      30.02S
HOLDREGE       CLOUDY    69  67  92 CALM      30.00F
KEARNEY *      CLOUDY    70  68  94 SE5       30.01F
YORK           LGT RAIN  72 N/A N/A SE7       30.03F
$$

NEZ011>018-030>034-042>045-280600-
NORTHEAST NEBRASKA

CITY           SKY/WX    TMP DP  RH WIND       PRES   REMARKS
NORFOLK        CLOUDY    69  67  93 E7        30.04F
ALBION         LGT RAIN  70  67  92 E7        30.03F
BLAIR          LGT RAIN  71  69  93 E8        30.06F
FREMONT        LGT RAIN  71  69  94 E8        30.06S
TEKAMAH        HVY RAIN  71  69  93 E7        30.06F FOG
WAYNE          CLOUDY    69  67  95 SE8       30.06F
$$

NEZ050>053-065>068-078-088>093-280600-
SOUTHEAST NEBRASKA

CITY           SKY/WX    TMP DP  RH WIND       PRES   REMARKS
LINCOLN        LGT RAIN  73  70  90 E6        30.05S
OMAHA EPPLEY   LGT RAIN  72  69  90 E9        30.05F
BEATRICE       LGT RAIN  72  71  98 NE6       30.03F
FALLS CITY     MOCLDY    72  69  90 E7        30.02F
NEBRASKA CITY  CLOUDY    70  70 100 E3        30.05F
PLATTSMOUTH    CLOUDY    70  68  92 E3        30.05F
$$

NEZ044-045-051>053-067-280600-
OMAHA AREA

CITY           SKY/WX    TMP DP  RH WIND       PRES   REMARKS
OMAHA EPPLEY   LGT RAIN  72  69  90 E9        30.05F
BLAIR          LGT RAIN  71  69  93 E8        30.06F
FREMONT        LGT RAIN  71  69  94 E8        30.06S
MILLARD        CLOUDY    72  69  92 E3        30.05F
OFFUTT AFB     LGT RAIN  71  71 100 E10       30.05F
PLATTSMOUTH    CLOUDY    70  68  92 E3        30.05F
WAHOO          DRIZZLE   71  69  91 E5        30.05F
$$



USA.gov is the U.S. government's official web portal to all federal, state and local government web resources and services.